Theta_e
318 318 318 319 320 321 321 322 322 322 324 324 324 324 324 324 324 324 325 325 325 326 330 333 341 351 352 351 348 348 349 351 351 348 340 348 351 346 341 335 332 326 323 317
322 320 320 321 321 322 322 322 322 323 323 324 324 324 324 325 325 324 324 325 325 326 328 331 342 353 351 351 348 347 346 348 348 347 340 350 351 343 338 333 330 325 318 317
321 322 323 322 321 321 321 321 321 322 322 323 323 323 324 324 324 324 324 325 325 325 326 328 346 350 351 348 343 339 340 345 346 347 345 351 349 341 336 331 329 321 317 317
322 322 322 322 322 322 321 321 321 320 320 320 322 323 325 325 325 325 324 324 324 324 324 325 344 343 340 339 337 336 336 342 346 346 345 350 347 341 335 331 328 317 317 317
321 322 322 322 322 322 321 321 321 321 321 322 321 321 322 325 325 326 326 324 324 324 324 324 333 342 347 341 333 333 333 333 335 337 343 349 347 341 336 333 330 317 316 317
321 321 322 322 322 323 322 321 321 321 321 323 322 322 322 323 325 326 326 325 325 326 324 324 324 347 351 349 343 335 342 343 344 340 336 344 347 343 339 335 333 323 316 316
322 321 322 322 321 322 322 322 322 322 322 322 321 321 324 325 324 325 327 328 329 329 329 328 327 343 350 350 350 344 347 346 342 335 333 335 333 345 341 336 334 331 318 316
320 321 322 323 323 322 321 322 324 323 324 321 323 323 323 325 324 324 327 327 329 329 330 330 330 331 333 349 346 348 349 348 342 344 339 339 343 344 337 337 336 337 327 320
319 319 319 320 322 323 324 323 323 325 325 325 326 325 325 324 326 326 326 327 329 329 329 328 329 330 332 332 343 345 349 346 346 349 348 344 339 334 339 333 336 340 338 329
315 316 315 316 316 321 322 323 323 324 326 326 326 327 328 330 331 327 327 327 328 328 327 328 329 331 333 333 331 338 331 348 348 346 344 341 332 343 340 340 343 339 340 331
311 312 313 314 314 315 317 318 320 322 324 326 329 327 328 331 330 329 326 327 327 327 329 329 330 332 333 334 335 334 342 344 352 352 347 342 339 341 330 331 344 342 337 331
310 311 312 312 312 312 312 316 317 322 325 325 327 328 327 327 326 323 324 321 320 325 327 329 330 331 332 333 334 336 334 332 348 350 342 341 342 338 335 336 345 342 335 333
310 310 311 310 310 312 312 313 315 317 320 321 324 326 325 325 323 322 320 318 316 318 323 327 329 330 330 331 332 332 334 335 332 346 348 342 348 349 342 341 343 343 338 335
306 307 308 308 309 310 310 310 311 314 316 316 316 317 324 325 325 321 319 314 315 314 319 322 324 327 329 330 331 331 333 335 337 335 347 347 345 348 347 346 344 341 339 336
308 309 309 309 309 309 309 309 309 309 310 312 314 314 316 317 320 319 316 313 313 311 316 319 318 322 326 328 329 331 335 336 337 339 346 346 347 344 345 345 346 344 340 338
311 312 310 309 309 309 309 309 310 308 308 308 309 309 310 311 314 314 314 313 311 311 311 313 315 317 325 325 326 328 329 333 336 336 337 334 341 341 341 339 344 342 340 337
311 311 310 309 308 309 310 309 309 310 309 309 308 309 310 311 312 312 310 310 310 310 310 310 311 312 318 323 325 325 326 330 333 335 335 338 339 339 340 339 338 338 339 336
310 310 309 310 308 311 309 309 309 309 310 309 309 310 310 310 310 309 309 309 309 309 310 310 311 311 313 318 321 322 324 327 328 329 332 332 334 339 337 335 333 334 337 335
310 309 310 311 309 309 309 309 309 309 310 311 310 310 310 309 310 309 312 312 311 311 311 311 312 312 312 312 316 320 324 325 327 327 329 330 331 336 336 334 333 333 334 330
308 310 311 308 310 311 309 309 310 310 311 312 312 312 312 312 311 311 312 312 312 312 311 311 311 311 312 312 313 320 322 324 325 326 324 324 329 331 333 334 333 332 333 334
309 312 313 313 312 309 310 310 309 311 312 310 310 310 311 313 313 313 311 311 310 310 310 310 310 310 311 313 316 320 322 322 324 324 325 319 325 329 330 331 331 333 332 332
311 313 314 313 314 314 310 308 309 310 309 308 308 308 309 309 310 311 311 311 310 310 310 309 309 310 310 311 313 316 319 319 318 323 321 320 325 327 330 330 331 331 332 332
312 311 313 311 312 311 308 308 309 308 308 308 308 308 308 309 309 309 310 310 310 310 309 310 310 309 309 310 311 315 314 320 317 319 318 322 324 325 329 330 331 331 332 332
310 309 311 311 309 309 307 307 307 307 306 305 304 304 305 306 308 309 309 309 309 309 308 308 309 309 309 309 310 311 316 316 318 319 319 319 320 324 325 328 330 330 330 331
308 309 310 311 309 306 306 305 304 303 304 304 304 304 305 306 307 308 308 308 309 308 308 308 308 309 309 309 309 313 315 315 314 318 318 319 318 317 318 322 321 321 317 321
310 308 309 309 305 304 303 303 304 304 304 303 303 304 305 305 305 306 307 308 308 308 308 309 309 309 309 308 309 309 311 314 316 317 317 318 316 316 315 315 316 318 320 315
Wind_Speed
17 12 15 19 19 19 20 20 23 21 19 17 20 18 18 18 30 28 27 26 28 32 33 38 26 33 34 31 27 29 27 31 32 33 31 28 29 26 21 19 19 17 19 19
14 16 18 17 18 18 19 21 20 20 23 21 19 20 17 16 21 25 26 26 22 19 20 39 28 35 36 35 37 33 29 30 33 33 29 28 27 26 23 23 24 18 22 20
19 19 19 18 16 18 18 18 19 19 19 21 21 22 20 21 26 28 30 26 23 24 28 35 35 37 34 32 35 36 23 32 30 29 29 24 19 24 22 26 24 23 23 20
20 21 22 19 16 16 17 18 19 19 16 16 17 16 19 20 22 23 30 30 29 27 29 24 45 44 44 43 44 36 42 30 32 32 28 28 31 33 29 29 24 25 24 21
22 23 23 22 22 21 21 18 18 19 18 18 21 15 18 18 19 22 23 34 35 31 30 26 28 46 49 51 46 46 41 42 50 43 32 28 29 31 31 28 24 26 26 25
24 32 25 22 22 19 19 20 20 18 16 16 20 18 18 18 19 21 17 25 34 19 34 32 33 42 48 48 48 50 46 56 57 48 42 32 36 30 30 29 26 27 29 27
21 25 24 26 25 21 18 14 12 15 14 16 20 21 18 20 21 20 3 13 14 9 7 10 7 35 49 54 49 52 53 56 53 48 44 51 43 35 17 23 27 26 29 30
17 20 18 12 15 21 23 19 14 19 15 19 21 19 18 20 24 24 7 10 7 4 6 9 11 8 4 33 51 48 51 48 46 44 57 58 55 47 29 32 35 25 29 29
8 15 23 22 19 10 16 15 18 21 20 17 19 25 22 14 3 10 14 17 12 3 1 2 9 8 12 9 15 28 31 46 50 50 55 63 55 45 44 21 46 42 28 31
7 16 14 19 24 14 10 13 14 13 19 19 21 20 16 16 10 14 7 10 10 3 6 3 4 10 15 17 15 10 34 57 47 45 55 52 51 48 38 41 43 46 33 32
11 8 15 18 15 16 15 13 16 14 16 14 15 10 14 20 16 13 20 29 13 8 7 6 4 7 10 18 20 17 10 46 37 40 47 52 50 49 41 40 29 39 38 33
10 6 14 18 24 24 22 14 16 9 12 15 16 12 9 13 16 28 17 18 31 17 11 8 6 8 10 15 22 22 18 11 22 33 34 17 34 46 45 41 37 40 39 37
7 5 11 14 14 16 13 14 16 16 15 20 7 10 8 10 7 16 18 26 29 23 14 13 9 8 11 11 16 22 23 19 16 15 20 31 41 39 43 43 42 44 45 44
1 6 13 13 17 19 15 14 12 15 11 18 19 21 9 10 11 10 13 29 32 31 13 10 14 17 8 10 14 19 25 24 22 20 27 24 29 32 38 42 47 45 49 47
5 10 13 16 19 20 18 18 18 15 17 16 19 23 19 4 10 10 12 12 16 26 21 8 9 13 13 17 16 17 18 18 18 13 20 29 30 29 31 37 50 54 48 48
6 4 14 14 19 20 19 21 25 20 20 22 22 22 20 27 6 7 15 20 16 8 18 18 12 13 9 11 13 21 22 17 16 14 13 15 12 20 24 24 43 40 47 50
8 12 11 15 17 17 17 16 18 20 18 18 20 20 19 19 17 11 13 8 8 8 9 12 13 15 14 12 10 13 17 21 14 15 14 7 17 23 22 23 24 32 45 47
12 13 11 13 14 15 18 16 10 16 16 15 15 17 18 19 20 18 20 14 12 12 3 4 12 16 14 13 14 13 12 15 19 15 14 5 2 15 15 19 20 26 40 49
16 11 10 9 12 18 20 15 9 8 16 17 16 14 21 20 21 14 6 10 9 5 4 7 10 14 17 15 14 16 7 8 10 16 12 15 6 9 17 19 21 25 31 51
9 10 8 12 13 17 18 20 29 16 12 22 23 16 20 30 10 5 11 6 4 4 6 8 11 14 16 13 12 12 7 8 6 9 13 10 12 7 10 20 22 23 29 32
5 9 9 9 8 8 8 22 22 10 9 24 24 25 20 17 20 23 8 8 8 9 10 13 13 12 16 14 12 10 9 7 5 7 10 10 8 10 15 19 21 25 26 34
7 6 8 7 5 7 14 18 10 16 26 25 27 27 28 29 29 26 22 18 14 14 13 15 15 14 13 17 17 13 13 12 7 6 10 9 6 6 14 17 22 23 27 28
4 2 4 5 7 24 24 17 20 23 26 30 31 32 31 34 33 30 28 26 22 20 19 18 19 19 16 15 17 14 16 10 8 9 9 5 6 6 8 13 15 22 25 27
7 10 4 9 4 19 22 25 20 23 28 30 30 31 32 34 35 34 33 27 29 20 22 25 24 24 21 16 15 17 11 14 12 8 4 1 2 2 2 9 12 12 19 22
15 12 8 13 17 28 11 25 26 32 33 35 33 32 32 31 31 29 27 27 22 21 22 25 26 28 24 18 16 12 13 13 18 14 8 6 4 2 2 5 5 8 15 13
5 2 1 5 21 17 25 33 34 32 30 32 33 37 30 27 28 27 27 22 21 26 23 21 23 26 24 22 18 17 16 15 13 17 13 9 6 9 10 9 10 6 4 11
Wind_Direction
204 220 218 228 227 249 269 275 277 285 284 246 262 267 243 256 266 249 262 245 235 233 217 224 195 190 186 187 193 188 184 197 205 202 186 178 195 184 198 197 205 203 190 187
224 223 239 238 240 244 256 257 262 275 285 291 287 279 250 248 276 268 244 257 254 228 216 216 198 180 185 191 199 201 207 209 215 211 193 182 199 183 195 196 205 203 195 190
231 242 216 231 247 254 248 260 273 273 277 273 267 266 272 264 251 265 273 265 256 256 231 212 184 179 179 189 203 212 206 210 222 214 191 189 199 188 193 205 209 202 198 192
244 252 256 260 248 236 255 261 251 262 264 265 267 258 248 243 243 245 249 252 247 244 256 247 193 195 205 207 211 206 201 200 228 217 198 202 196 191 193 209 209 198 196 197
254 256 251 254 245 253 267 249 265 274 262 260 252 265 268 264 252 237 230 231 240 236 240 238 221 198 192 199 201 204 213 208 219 213 203 219 201 201 193 210 214 200 198 199
268 274 275 270 269 259 245 263 263 257 264 254 258 247 260 265 266 270 268 240 223 233 225 230 244 190 188 200 205 205 203 196 202 202 199 223 217 200 201 207 213 204 201 203
252 253 256 258 266 265 261 258 247 247 242 250 246 250 263 258 263 269 283 45 60 70 336 336 277 193 190 201 193 201 199 199 195 206 212 203 228 214 195 210 216 211 205 205
285 278 270 319 284 265 235 235 254 255 251 261 258 249 247 246 245 251 122 97 75 37 13 347 342 12 245 213 206 200 198 195 206 201 197 207 203 198 227 241 240 224 219 213
323 288 325 325 330 274 279 275 270 279 284 288 286 283 287 276 343 189 194 146 122 112 76 345 324 331 316 316 227 250 224 210 201 194 197 201 216 218 206 195 237 230 216 218
318 306 304 318 325 297 289 289 297 286 275 254 246 271 286 3 313 219 230 139 107 199 206 137 312 332 326 322 305 238 226 215 205 210 211 212 215 202 204 202 218 215 214 208
322 267 292 302 289 291 303 289 265 272 269 268 274 284 31 5 9 89 11 349 60 4 30 65 40 14 345 335 341 353 215 229 194 212 212 211 213 211 220 215 222 216 206 200
333 300 294 288 299 298 294 287 291 283 274 295 297 257 92 51 11 25 63 349 351 354 10 12 39 39 16 351 341 339 328 320 232 202 202 230 229 221 217 235 227 210 194 202
359 292 306 301 288 245 287 287 287 277 273 260 255 288 102 106 61 18 14 347 336 332 354 356 16 47 34 15 356 342 332 326 304 242 161 198 222 218 215 213 218 206 200 207
39 263 265 277 292 306 302 298 296 293 292 285 260 261 191 195 154 54 0 329 316 316 316 347 343 12 23 9 1 354 345 339 334 320 226 195 213 211 216 218 213 207 207 205
219 267 277 290 302 297 292 287 279 273 278 274 290 294 287 327 142 200 207 230 271 322 314 338 343 339 353 15 12 359 5 351 342 347 191 203 207 219 220 218 209 214 217 219
38 279 283 294 295 298 301 301 298 268 268 272 277 277 287 293 174 220 217 228 205 241 306 303 329 322 352 335 356 5 5 354 356 358 342 274 245 225 220 225 221 220 216 216
229 267 297 287 286 280 287 275 270 309 281 286 270 277 277 280 288 224 206 233 266 269 208 309 321 314 322 356 352 345 359 357 352 339 13 68 211 221 214 218 223 224 217 218
263 266 277 283 290 291 286 297 302 260 267 276 289 285 284 279 277 286 289 289 273 277 20 5 325 311 321 325 324 335 345 359 353 335 316 354 50 220 223 214 226 227 226 221
225 254 266 276 275 277 290 294 297 301 307 298 315 298 314 311 315 289 14 26 18 49 349 343 313 309 306 308 314 320 324 331 352 343 320 300 298 204 219 230 241 237 231 219
220 229 261 274 275 278 280 298 343 345 285 9 353 342 336 336 288 295 39 26 6 331 299 299 307 312 313 303 289 302 299 309 324 327 326 339 292 261 233 246 243 239 237 228
256 257 272 262 266 266 7 357 336 280 332 329 329 323 323 315 314 321 333 281 295 291 287 290 293 299 303 307 281 293 287 300 319 307 306 319 322 264 246 234 244 240 238 232
313 299 269 273 252 258 5 339 344 312 317 319 312 309 304 297 294 301 310 300 295 294 293 289 288 288 293 296 298 281 278 272 272 285 290 304 302 302 255 250 239 244 242 234
293 20 289 299 294 318 319 331 324 317 308 311 310 304 299 296 294 290 280 284 284 284 285 290 287 287 281 279 292 281 275 266 271 256 284 297 296 325 285 253 239 229 228 233
322 319 264 298 293 310 335 320 322 315 310 307 305 297 293 284 281 281 277 270 265 276 272 273 278 279 277 269 278 276 266 264 253 248 224 147 84 235 285 234 217 206 212 214
290 300 296 293 303 328 314 319 313 308 306 304 302 295 282 280 280 273 272 266 269 269 272 271 262 268 265 270 264 270 277 275 262 232 217 215 209 191 160 163 121 128 82 132
25 63 308 289 307 293 295 306 313 309 305 303 302 303 292 271 274 270 262 262 266 260 263 261 264 267 257 255 261 273 286 258 243 230 222 202 205 186 155 134 118 153 179 53